FW7875 Weather Reports


Display with metric or nautical units.
time (UTC)temp
F
wind
direction
speed
MPH
gust
MPH
rain 1hr
in
rain 24hr
in
rain mn
in
humidity
%
barometer
mb
20240303132012 25 0 0.0 2.0 0.00 0.00 0.00 94 1005.3
20240303131514 25 0 1.0 3.0 0.00 0.00 0.00 94 1005.3
20240303131015 25 0 2.0 4.0 0.00 0.00 0.00 94 1005.3
20240303130515 25 0 1.0 4.0 0.00 0.00 0.00 94 1005.3
20240303130017 25 288 3.0 4.0 0.00 0.00 0.00 94 1005.6
20240303125512 25 285 0.0 1.0 0.00 0.00 0.00 94 1005.3
20240303125013 25 0 0.0 1.0 0.00 0.00 0.00 94 1005.4
20240303124516 25 278 0.0 1.0 0.00 0.00 0.00 94 1005.5
20240303124013 25 0 0.0 3.0 0.00 0.00 0.00 94 1005.3
20240303123512 25 0 1.0 3.0 0.00 0.00 0.00 94 1005.3
20240303123016 25 172 1.0 2.0 0.00 0.00 0.00 94 1005.3
20240303122512 25 192 0.0 3.0 0.00 0.00 0.00 94 1005.3
20240303122013 24 212 0.0 3.0 0.00 0.00 0.00 94 1005.1
20240303121528 24 207 0.0 5.0 0.00 0.00 0.00 94 1005.3
20240303121013 25 217 2.0 6.0 0.00 0.00 0.00 94 1005.4
20240303120513 24 261 4.0 6.0 0.00 0.00 0.00 94 1005.5
20240303120014 24 259 4.0 6.0 0.00 0.00 0.00 94 1005.4
20240303115512 24 250 4.0 7.0 0.00 0.00 0.00 94 1005.2
20240303115014 25 229 4.0 9.0 0.00 0.00 0.00 94 1005.3
20240303114515 25 281 5.0 9.0 0.00 0.00 0.00 94 1005.4
20240303114013 25 252 5.0 8.0 0.00 0.00 0.00 94 1005.5
20240303113512 25 242 5.0 8.0 0.00 0.00 0.00 94 1005.2
20240303113017 25 247 5.0 8.0 0.00 0.00 0.00 94 1005.1
20240303112512 25 240 4.0 6.0 0.00 0.00 0.00 94 1004.7
20240303112016 25 231 4.0 6.0 0.00 0.00 0.00 94 1004.6
20240303111514 25 238 4.0 8.0 0.00 0.00 0.00 94 1004.6
20240303111016 25 267 5.0 8.0 0.00 0.00 0.00 94 1004.5
20240303110513 25 253 6.0 8.0 0.00 0.00 0.00 94 1004.7
20240303110015 25 262 5.0 8.0 0.00 0.00 0.00 94 1004.6
20240303105513 25 223 4.0 7.0 0.00 0.00 0.00 94 1004.6
20240303105019 25 229 4.0 7.0 0.00 0.00 0.00 94 1004.5
20240303104516 25 236 4.0 9.0 0.00 0.00 0.00 94 1004.7
20240303104016 25 276 5.0 9.0 0.00 0.00 0.00 94 1004.6
20240303103513 25 281 4.0 7.0 0.00 0.00 0.00 93 1004.4
20240303103016 25 272 5.0 12.0 0.00 0.00 0.00 93 1004.5
20240303102513 26 255 7.0 12.0 0.00 0.00 0.00 93 1004.4
20240303102013 26 243 7.0 10.0 0.00 0.00 0.00 94 1004.8
20240303101517 26 259 6.0 9.0 0.00 0.00 0.00 94 1004.6
20240303101013 27 259 4.0 9.0 0.00 0.00 0.00 94 1004.2
20240303100513 27 254 6.0 8.0 0.00 0.00 0.00 94 1004.4
20240303100027 27 266 4.0 10.0 0.00 0.00 0.00 94 1004.4
20240303095514 27 264 7.0 11.0 0.00 0.00 0.00 94 1004.4
20240303095014 27 271 7.0 12.0 0.00 0.00 0.00 93 1004.3
20240303094513 27 276 8.0 12.0 0.00 0.00 0.00 93 1004.2
20240303094017 28 293 8.0 16.0 0.00 0.00 0.00 93 1004.2
20240303093514 28 285 9.0 19.0 0.00 0.00 0.00 93 1004.0
20240303093013 28 290 12.0 19.0 0.00 0.00 0.00 92 1004.3
20240303092514 29 265 14.0 20.0 0.00 0.00 0.00 92 1004.5
20240303092015 30 273 13.0 20.0 0.00 0.00 0.00 92 1004.8
20240303091515 30 259 13.0 20.0 0.00 0.00 0.00 90 1004.8
20240303091015 32 242 12.0 28.0 0.00 0.00 0.00 87 1004.5
20240303090513 34 264 18.0 28.0 0.00 0.00 0.00 82 1004.0
20240303090015 36 216 17.0 24.0 0.00 0.00 0.00 77 1003.6
20240303085516 36 247 13.0 23.0 0.00 0.00 0.00 76 1002.9
20240303085013 36 257 11.0 28.0 0.00 0.00 0.00 76 1002.8
20240303084521 35 203 14.0 28.0 0.00 0.00 0.00 77 1003.0
20240303084013 35 263 12.0 32.0 0.00 0.00 0.00 80 1002.8
20240303083513 35 191 12.0 32.0 0.00 0.00 0.00 80 1003.0
20240303083014 36 172 19.0 30.0 0.00 0.00 0.00 76 1003.2
20240303082513 36 191 18.0 27.0 0.00 0.00 0.00 75 1003.3
20240303082014 37 224 16.0 27.0 0.00 0.00 0.00 69 1003.3
20240303081523 37 192 16.0 29.0 0.00 0.00 0.00 69 1003.1
20240303081012 37 200 17.0 29.0 0.00 0.00 0.00 71 1002.9
20240303080513 37 179 14.0 31.0 0.00 0.00 0.00 71 1002.7
20240303080016 37 174 20.0 31.0 0.00 0.00 0.00 69 1002.8
20240303075513 38 186 15.0 30.0 0.00 0.00 0.00 67 1002.9
20240303075013 38 198 18.0 35.0 0.00 0.00 0.00 65 1003.1
20240303074513 39 193 24.0 35.0 0.00 0.00 0.00 61 1003.1
20240303074014 39 211 18.0 31.0 0.00 0.00 0.00 58 1002.8
20240303073513 39 196 19.0 31.0 0.00 0.00 0.00 60 1002.8
20240303073015 39 218 19.0 32.0 0.00 0.00 0.00 62 1002.6
20240303072513 38 207 18.0 32.0 0.00 0.00 0.00 64 1002.6
20240303072013 38 173 20.0 32.0 0.00 0.00 0.00 65 1002.6
20240303071514 37 169 18.0 29.0 0.00 0.00 0.00 69 1002.7
20240303071013 37 194 15.0 37.0 0.00 0.00 0.00 72 1002.9
20240303070515 38 207 16.0 42.0 0.00 0.00 0.00 71 1003.2
20240303070016 39 218 27.0 42.0 0.00 0.00 0.00 63 1003.5
20240303065512 41 179 27.0 38.0 0.00 0.00 0.00 56 1003.1
20240303065012 40 158 16.0 28.0 0.00 0.00 0.00 53 1002.8
20240303064514 40 197 13.0 42.0 0.00 0.00 0.00 54 1002.6
20240303064013 40 194 22.0 42.0 0.00 0.00 0.00 55 1002.6
20240303063512 41 143 28.0 42.0 0.00 0.00 0.00 55 1002.9
20240303063019 42 210 21.0 37.0 0.00 0.00 0.00 50 1002.7
20240303062511 42 198 26.0 37.0 0.00 0.00 0.00 48 1002.8
20240303062013 42 236 21.0 34.0 0.00 0.00 0.00 47 1002.8
20240303061513 42 181 15.0 36.0 0.00 0.00 0.00 48 1002.5
20240303061012 42 197 22.0 38.0 0.00 0.00 0.00 48 1002.5
20240303060512 42 215 21.0 38.0 0.00 0.00 0.00 47 1002.6
20240303060015 43 172 21.0 37.0 0.00 0.00 0.00 46 1002.3
20240303055512 42 224 19.0 33.0 0.00 0.00 0.00 47 1002.8
20240303055012 42 197 16.0 44.0 0.00 0.00 0.00 49 1002.8
20240303054514 42 219 25.0 44.0 0.00 0.00 0.00 49 1002.8
20240303054012 42 215 24.0 44.0 0.00 0.00 0.00 50 1002.8
20240303053512 42 221 18.0 41.0 0.00 0.00 0.00 50 1002.8
20240303053015 42 210 21.0 42.0 0.00 0.00 0.00 52 1002.8
20240303052517 43 196 21.0 43.0 0.00 0.00 0.00 47 1003.1
20240303052016 43 216 25.0 43.0 0.00 0.00 0.00 45 1002.8
20240303051513 44 204 23.0 37.0 0.00 0.00 0.00 44 1002.7
20240303051012 44 218 25.0 37.0 0.00 0.00 0.00 44 1002.4
20240303050513 44 200 23.0 37.0 0.00 0.00 0.00 43 1002.5
20240303050015 44 203 19.0 47.0 0.00 0.00 0.00 42 1002.4
20240303045513 44 185 26.0 47.0 0.00 0.00 0.00 41 1002.4
20240303045013 44 214 20.0 38.0 0.00 0.00 0.00 42 1002.3
20240303044513 44 198 20.0 38.0 0.00 0.00 0.00 41 1002.6
20240303044012 44 218 24.0 41.0 0.00 0.00 0.00 41 1002.4
20240303043512 44 190 22.0 41.0 0.00 0.00 0.00 41 1002.4
20240303043023 44 191 25.0 40.0 0.00 0.00 0.00 41 1002.4
20240303042512 44 211 21.0 43.0 0.00 0.00 0.00 40 1002.7
20240303042015 45 174 27.0 44.0 0.00 0.00 0.00 39 1002.2
20240303041512 45 209 27.0 44.0 0.00 0.00 0.00 38 1002.4
20240303041036 45 233 17.0 38.0 0.00 0.00 0.00 38 1002.2
20240303040513 45 185 22.0 38.0 0.00 0.00 0.00 37 1001.8
20240303040014 45 200 20.0 38.0 0.00 0.00 0.00 37 1002.1
20240303035513 46 214 25.0 47.0 0.00 0.00 0.00 37 1001.6
20240303035013 46 178 23.0 47.0 0.00 0.00 0.00 36 1002.0
20240303034513 46 181 23.0 37.0 0.00 0.00 0.00 36 1001.8
20240303034014 46 181 23.0 39.0 0.00 0.00 0.00 35 1001.8
20240303033513 46 205 25.0 39.0 0.00 0.00 0.00 35 1001.7
20240303033013 47 203 21.0 38.0 0.00 0.00 0.00 34 1001.7
20240303032513 47 167 22.0 37.0 0.00 0.00 0.00 33 1001.9
20240303032015 47 197 21.0 35.0 0.00 0.00 0.00 33 1001.8
20240303031513 47 217 18.0 32.0 0.00 0.00 0.00 33 1001.6
20240303031013 47 202 20.0 32.0 0.00 0.00 0.00 33 1001.5
20240303030513 47 205 16.0 37.0 0.00 0.00 0.00 32 1001.8
20240303030015 48 225 20.0 37.0 0.00 0.00 0.00 31 1001.6
20240303025514 48 215 20.0 35.0 0.00 0.00 0.00 31 1001.7
20240303025013 48 236 22.0 35.0 0.00 0.00 0.00 31 1001.5
20240303024519 48 238 21.0 39.0 0.00 0.00 0.00 31 1001.8
20240303024012 49 219 26.0 39.0 0.00 0.00 0.00 30 1001.7
20240303023517 49 206 25.0 40.0 0.00 0.00 0.00 30 1001.6
20240303023015 49 213 23.0 40.0 0.00 0.00 0.00 30 1001.8
20240303022513 49 181 13.0 28.0 0.00 0.00 0.00 29 1001.7
20240303022013 49 205 13.0 28.0 0.00 0.00 0.00 29 1001.6
20240303021513 49 224 17.0 33.0 0.00 0.00 0.00 28 1001.5
20240303021013 49 220 21.0 33.0 0.00 0.00 0.00 28 1001.5
20240303020516 49 223 17.0 35.0 0.00 0.00 0.00 28 1001.6
20240303020013 49 203 20.0 38.0 0.00 0.00 0.00 27 1001.4
20240303015512 49 178 17.0 38.0 0.00 0.00 0.00 27 1001.7
20240303015012 50 183 17.0 46.0 0.00 0.00 0.00 28 1001.3
20240303014513 50 184 22.0 46.0 0.00 0.00 0.00 28 1001.5
20240303014013 50 177 27.0 48.0 0.00 0.00 0.00 28 1001.7
20240303013513 50 184 29.0 48.0 0.00 0.00 0.00 28 1001.7
20240303013020 50 193 21.0 42.0 0.00 0.00 0.00 27 1001.7
20240303012513 50 204 23.0 42.0 0.00 0.00 0.00 27 1001.7
20240303012015 50 209 28.0 42.0 0.00 0.00 0.00 27 1001.3
20240303011514 50 228 24.0 34.0 0.00 0.00 0.00 27 1001.3
20240303011013 50 210 21.0 31.0 0.00 0.00 0.00 26 1001.3
20240303010513 50 212 18.0 28.0 0.00 0.00 0.00 26 1001.2
20240303010028 50 221 15.0 28.0 0.00 0.00 0.00 26 1001.3
20240303005514 51 201 15.0 35.0 0.00 0.00 0.00 26 1001.3
20240303005013 51 204 18.0 35.0 0.00 0.00 0.00 25 1001.3
20240303004518 51 212 19.0 36.0 0.00 0.00 0.00 25 1001.1
20240303004013 51 187 20.0 39.0 0.00 0.00 0.00 24 1001.1
20240303003513 51 217 25.0 39.0 0.00 0.00 0.00 24 1001.2
20240303003012 51 174 26.0 42.0 0.00 0.00 0.00 24 1001.0
20240303002512 51 168 28.0 42.0 0.00 0.00 0.00 24 1000.8
20240303002013 51 181 23.0 45.0 0.00 0.00 0.00 24 1000.9
20240303001513 52 207 31.0 45.0 0.00 0.00 0.00 24 1001.1
20240303001013 52 173 22.0 46.0 0.00 0.00 0.00 23 1001.2
20240303000513 52 233 22.0 46.0 0.00 0.00 0.00 22 1001.2
20240303000013 52 190 30.0 46.0 0.00 0.00 0.00 21 1001.1
20240302235513 52 226 28.0 43.0 0.00 0.00 0.00 21 1001.0
20240302235013 52 219 24.0 43.0 0.00 0.00 0.00 21 1001.3
20240302234514 52 172 21.0 36.0 0.00 0.00 0.00 21 1001.1
20240302234013 52 198 21.0 36.0 0.00 0.00 0.00 21 1001.2
20240302233515 53 173 25.0 36.0 0.00 0.00 0.00 21 1001.5
20240302233015 53 168 22.0 33.0 0.00 0.00 0.00 21 1001.4
20240302232513 53 167 15.0 42.0 0.00 0.00 0.00 22 1001.5
20240302232013 52 212 22.0 45.0 0.00 0.00 0.00 22 1001.6
20240302231513 52 175 30.0 45.0 0.00 0.00 0.00 21 1001.6
20240302231012 53 200 30.0 43.0 0.00 0.00 0.00 21 1001.8
20240302230513 54 175 19.0 38.0 0.00 0.00 0.00 21 1001.7
20240302230013 54 184 24.0 35.0 0.00 0.00 0.00 22 1001.9
20240302225512 54 167 22.0 39.0 0.00 0.00 0.00 22 1001.8
20240302225013 54 186 24.0 54.0 0.00 0.00 0.00 22 1001.7
20240302224512 54 158 31.0 54.0 0.00 0.00 0.00 22 1002.1
20240302224012 53 194 22.0 47.0 0.00 0.00 0.00 22 1001.9
20240302223513 53 212 27.0 47.0 0.00 0.00 0.00 21 1001.9
20240302223014 54 172 26.0 41.0 0.00 0.00 0.00 21 1001.8
20240302222513 54 152 24.0 39.0 0.00 0.00 0.00 21 1002.2
20240302222013 54 160 26.0 36.0 0.00 0.00 0.00 22 1002.2
20240302221514 54 169 22.0 40.0 0.00 0.00 0.00 23 1002.5
20240302221013 54 199 26.0 41.0 0.00 0.00 0.00 23 1002.9
20240302220512 53 205 22.0 41.0 0.00 0.00 0.00 24 1003.0
20240302220017 53 169 23.0 39.0 0.00 0.00 0.00 23 1003.1
20240302215512 54 163 25.0 39.0 0.00 0.00 0.00 23 1003.0
20240302215013 53 169 24.0 37.0 0.00 0.00 0.00 23 1003.0
20240302214519 53 200 21.0 35.0 0.00 0.00 0.00 23 1003.3
20240302214014 54 187 17.0 39.0 0.00 0.00 0.00 23 1003.3
20240302213512 54 196 23.0 39.0 0.00 0.00 0.00 24 1003.3
20240302213013 53 159 29.0 39.0 0.00 0.00 0.00 24 1003.6
20240302212513 54 161 22.0 34.0 0.00 0.00 0.00 23 1004.0
20240302212013 54 174 20.0 36.0 0.00 0.00 0.00 22 1004.2
20240302211513 53 193 25.0 36.0 0.00 0.00 0.00 23 1004.4
20240302211012 53 179 24.0 36.0 0.00 0.00 0.00 23 1004.4
20240302210513 53 176 19.0 36.0 0.00 0.00 0.00 23 1004.4
20240302210016 53 197 21.0 36.0 0.00 0.00 0.00 24 1004.8
20240302205513 52 137 22.0 31.0 0.00 0.00 0.00 24 1005.1
20240302205012 53 206 17.0 30.0 0.00 0.00 0.00 24 1004.9
20240302204515 53 198 19.0 32.0 0.00 0.00 0.00 25 1005.2
20240302204013 53 142 18.0 36.0 0.00 0.00 0.00 25 1005.4
20240302203514 52 165 21.0 38.0 0.00 0.00 0.00 25 1005.7
20240302203013 52 161 25.0 38.0 0.00 0.00 0.00 25 1005.6
20240302202513 52 203 21.0 33.0 0.00 0.00 0.00 24 1005.6
20240302202016 52 208 18.0 37.0 0.00 0.00 0.00 25 1005.8
20240302201514 52 200 21.0 37.0 0.00 0.00 0.00 24 1005.9
20240302201013 52 156 18.0 31.0 0.00 0.00 0.00 25 1006.3
20240302200513 52 168 18.0 31.0 0.00 0.00 0.00 25 1006.4
20240302200016 52 198 19.0 31.0 0.00 0.00 0.00 25 1006.9
20240302195512 52 143 19.0 31.0 0.00 0.00 0.00 25 1007.5
20240302195014 52 162 15.0 29.0 0.00 0.00 0.00 26 1007.4
20240302194513 51 165 19.0 33.0 0.00 0.00 0.00 26 1007.6
20240302194016 51 169 14.0 33.0 0.00 0.00 0.00 27 1008.0
20240302193513 51 198 20.0 30.0 0.00 0.00 0.00 26 1008.0
20240302193016 51 173 16.0 29.0 0.00 0.00 0.00 26 1008.2
20240302192513 50 141 19.0 29.0 0.00 0.00 0.00 27 1008.4
20240302192016 50 188 21.0 33.0 0.00 0.00 0.00 26 1008.4
20240302191515 50 207 22.0 33.0 0.00 0.00 0.00 27 1008.6
20240302191012 50 199 21.0 31.0 0.00 0.00 0.00 27 1008.6
20240302190513 50 163 21.0 31.0 0.00 0.00 0.00 27 1008.7
20240302190015 50 170 18.0 31.0 0.00 0.00 0.00 28 1008.9
20240302185512 50 162 22.0 32.0 0.00 0.00 0.00 27 1009.1
20240302185014 50 202 17.0 33.0 0.00 0.00 0.00 27 1009.1
20240302184515 50 179 20.0 33.0 0.00 0.00 0.00 27 1009.3
20240302184012 50 180 21.0 33.0 0.00 0.00 0.00 27 1009.5
20240302183513 49 166 20.0 32.0 0.00 0.00 0.00 27 1009.5
20240302183012 50 157 18.0 32.0 0.00 0.00 0.00 27 1009.6
20240302182513 49 154 17.0 32.0 0.00 0.00 0.00 27 1009.7
20240302182013 49 200 21.0 32.0 0.00 0.00 0.00 26 1009.8
20240302181517 49 214 15.0 31.0 0.00 0.00 0.00 26 1010.0
20240302181012 49 172 17.0 31.0 0.00 0.00 0.00 27 1010.2
20240302180512 49 205 19.0 27.0 0.00 0.00 0.00 26 1010.3
20240302180015 49 196 14.0 27.0 0.00 0.00 0.00 27 1010.6
20240302175515 49 219 15.0 28.0 0.00 0.00 0.00 26 1010.7
20240302175012 49 150 16.0 29.0 0.00 0.00 0.00 26 1010.7
20240302174514 49 210 18.0 29.0 0.00 0.00 0.00 27 1010.7
20240302174013 49 142 17.0 29.0 0.00 0.00 0.00 27 1011.0
20240302173512 48 154 17.0 26.0 0.00 0.00 0.00 27 1011.1
20240302173026 48 155 15.0 24.0 0.00 0.00 0.00 28 1011.2
20240302172512 47 184 15.0 27.0 0.00 0.00 0.00 28 1011.4
20240302172013 46 228 14.0 27.0 0.00 0.00 0.00 30 1011.6
20240302171520 46 160 17.0 26.0 0.00 0.00 0.00 29 1011.7
20240302171013 45 188 12.0 24.0 0.00 0.00 0.00 30 1011.9
20240302170512 45 181 16.0 24.0 0.00 0.00 0.00 30 1011.9
20240302170024 44 162 6.0 14.0 0.00 0.00 0.00 31 1012.2
20240302165512 44 110 7.0 18.0 0.00 0.00 0.00 31 1012.2
20240302165012 44 171 5.0 21.0 0.00 0.00 0.00 32 1012.2
20240302164516 44 200 9.0 21.0 0.00 0.00 0.00 33 1012.2
20240302164012 44 218 12.0 22.0 0.00 0.00 0.00 32 1012.3
20240302163513 44 206 7.0 22.0 0.00 0.00 0.00 33 1012.4
20240302163015 43 137 12.0 19.0 0.00 0.00 0.00 33 1012.6
20240302162512 43 178 7.0 19.0 0.00 0.00 0.00 34 1012.5
20240302162013 43 201 9.0 19.0 0.00 0.00 0.00 34 1012.4
20240302161517 43 179 12.0 19.0 0.00 0.00 0.00 34 1012.5
20240302161015 43 225 13.0 19.0 0.00 0.00 0.00 34 1012.4
20240302160513 43 214 7.0 19.0 0.00 0.00 0.00 36 1012.3
20240302160015 42 203 9.0 21.0 0.00 0.00 0.00 36 1012.3
20240302155514 42 145 10.0 24.0 0.00 0.00 0.00 37 1012.2
20240302155013 42 179 15.0 24.0 0.00 0.00 0.00 37 1012.3
20240302154516 42 183 12.0 19.0 0.00 0.00 0.00 38 1012.5
20240302154014 42 206 8.0 21.0 0.00 0.00 0.00 38 1012.6
20240302153513 42 172 12.0 21.0 0.00 0.00 0.00 38 1012.4
20240302153015 42 136 14.0 19.0 0.00 0.00 0.00 38 1012.3
20240302152513 41 183 10.0 23.0 0.00 0.00 0.00 38 1012.5
20240302152013 41 171 13.0 23.0 0.00 0.00 0.00 38 1012.5
20240302151521 41 151 13.0 23.0 0.00 0.00 0.00 38 1012.4
20240302151013 41 177 11.0 19.0 0.00 0.00 0.00 38 1012.3
20240302150514 41 161 10.0 19.0 0.00 0.00 0.00 38 1012.3
20240302150014 41 182 10.0 19.0 0.00 0.00 0.00 39 1012.6
20240302145514 40 167 8.0 19.0 0.00 0.00 0.00 39 1012.3
20240302145012 40 176 13.0 19.0 0.00 0.00 0.00 39 1012.5
20240302144513 40 187 11.0 20.0 0.00 0.00 0.00 39 1012.2
20240302144015 40 172 10.0 20.0 0.00 0.00 0.00 39 1012.4
20240302143513 40 189 10.0 17.0 0.00 0.00 0.00 40 1012.3
20240302143017 39 186 8.0 15.0 0.00 0.00 0.00 40 1012.5
20240302142517 39 171 8.0 17.0 0.00 0.00 0.00 41 1012.3
20240302142014 39 186 8.0 17.0 0.00 0.00 0.00 41 1012.2
20240302141513 39 143 9.0 17.0 0.00 0.00 0.00 41 1012.3
20240302141014 39 173 9.0 17.0 0.00 0.00 0.00 42 1012.3
20240302140516 39 164 10.0 17.0 0.00 0.00 0.00 42 1012.4
20240302140012 39 185 7.0 15.0 0.00 0.00 0.00 42 1012.3
20240302135516 38 142 8.0 15.0 0.00 0.00 0.00 43 1012.4
20240302135017 38 145 6.0 12.0 0.00 0.00 0.00 44 1012.2
20240302134512 38 150 8.0 12.0 0.00 0.00 0.00 44 1012.6
20240302134013 37 143 5.0 10.0 0.00 0.00 0.00 44 1012.7
20240302133513 37 160 0.0 8.0 0.00 0.00 0.00 44 1012.8
20240302133013 38 130 4.0 8.0 0.00 0.00 0.00 44 1012.9
20240302132512 38 167 4.0 12.0 0.00 0.00 0.00 44 1013.0